Погода в Тотьме

Погода в Тотьме : погода сейчас, прогноз погоды и архив. Всё, что Вы хотите узнать о погоде в Тотьме!

Хотите узнать прогноз погоды в Тотьме? Тогда Вам сюда: Погода в Тотьме

Поиск расширенной информации на нашем сайте:

Другие новости

Новости СМИ2

Главная страница сайта

Новости сайта

03.07.2017

Напоминаем, что на нашем специализированном сайте Метеоцентр.Азия вы можете получить высокодетализированные автоматические прогнозы погоды по пунктам России, СНГ и мира в авиационном формате (включающие направление и скорость ветра, видимость, явления погоды, количество и форму облачности, нижнюю и верхнюю границу облачности).


Погода в Тотьме - сегодня

Время (UTC), дата Ветер
(°,м/с) 
Видим.   Явления Облачность Т
(°С)
Тd
(°С)
f(%) Тe
(°С)
Pmin
(гПа)
dP
(гПа)
Po
(мм)
O2
(г/м3)
Тmin Tmax R s Состояние
почвы
15 20.09.18 260 (З) 10 км  {дождь}  10/6 420 м кучево-дожд., средняя, верхняя 
[Cb cap|Ac trans|Ci fib]
+15.1 +13.6 91 +23  1009.1  1.4  745  282    +15.5     
21 20.09.18 200 (Ю) 4000 м  дымка  9/0 верхняя 
[Ci fib]
+12.3 +11.5 95 +17  1011.1  0.6  746  286           
00 21.09.18 210 (ЮЗ) 10 км    10/8 2000 м средняя, верхняя 
[Ac trans|Cs]
+11.9 +11.3 96 +16  1011.2  0.1  746  286           
03 21.09.18 210 (ЮЗ) 10 км    10/6 800 м средняя, верхняя 
[Sc|Ac trans|Cs]
+11.4 +10.8 96 +15  1012.2  747  287  +11.1        влажная 
06 21.09.18 220 (ЮЗ) 10 км    8/6 2000 м средняя, верхняя 
[Ac trans|Ci fib]
+14.5 +12.9 90 +21  1012.5  0.5  747  283           
09 21.09.18 250 (З) 10 км    10/3 1000 м средняя, верхняя 
[Cu hum|Ac trans|Cs]
+19.1 +12.1 64 +24  1012.5  0.2  748  279           
12 21.09.18 240 (ЮЗ) 10 км    8/3 600 м средняя, верхняя 
[Cu Sc|Ac trans|Ci fib]
+21 +11.9 56 +25  1012.8  0.4  748  278           
18 21.09.18 тихо ()   10 км    5/3 2000 м средняя, верхняя 
[Ac trans|Ci fib]
+13.7 +12.7 94 +19  1014.2  0.2  749  285           
21 21.09.18 тихо ()   10 км    4/0 верхняя 
[Ci fib]
+11 +10.4 96 +13  1015  0.6  749  288           
00 22.09.18 240 (ЮЗ) 10 км    ясно 
+11.4 +10.8 96 +15  1015.2  0.2  749  288           
03 22.09.18 190 (Ю) 0500 м  туман  ясно 
+10.3 +9.7 96 +12  1015.5  0.2  749  289  +9.7        влажная 
09 22.09.18 150 (ЮВ) 10 км  {туман}  3/3 300 м 
[Cu hum]
+19 +16.3 84 +31  1013.3  -0.9  748  278           
12 22.09.18 200 (Ю) 10 км  {туман}  3/3 300 м 
[Cu hum]
+23.6 +12.4 49 +28  1011.2  -1.9  747  275           
18 22.09.18 180 (Ю) 10 км    ясно 
+18.2 +12.9 71 +24  1009.2  -1.2  745  279           
21 22.09.18 180 (Ю) 10 км    ясно 
+16.7 +12.8 78 +22  1008.2  -1.1  744  280           
00 23.09.18 170 (Ю) 10 км    ясно 
+15.8 +11.6 76 +20  1006.7  -1.5  743  281           
03 23.09.18 180 (Ю) 10 км    4/3 2000 м средняя, верхняя 
[Ac trans|Ci fib]
+14 +10.9 82 +18  1005.6  -1.2  742  282  +14        влажная 
06 23.09.18 150 (ЮВ) 10 км    6/1 1000 м средняя, верхняя 
[Sc|Ac trans|Ci fib]
+16.6 +11.1 70 +20  1003  -2.4  740  279           
09 23.09.18 170 (Ю) 10 км  {ливн. осадки}  10/5 600 м кучево-дожд., средняя, верхняя 
[Cb cap|Ac trans|Cs]
+17.4 +11.9 70 +22  1001.3  -1.6  739  278           
15 23.09.18 260 (З) 3{16}  10 км  в посл. час ливневой дождь  10/8 420 м кучево-дожд., средняя, верхняя 
[Cb cap|Ac trans|Cs]
+9.6 +7.7 88 +9  1002.9  2.3  740  287    +20.3     
21 23.09.18 210 (ЮЗ) 10 км    10/6 800 м средняя, верхняя 
[Sc|Ac trans|Cs]
+8.6 +7.5 93 +10  1005.8  0.6  742  289           
03 24.09.18 190 (Ю) 10 км    10/8 300 м средняя 
[Frnb|Ac trans]
+8.9 +7.8 93 +9  1005.9  0.2  742  288  +8.5    0.0    влажная 
06 24.09.18 200 (Ю) 10 км    10/6 480 м кучево-дожд., средняя 
[Cb cap|Ac trans]
+9.4 +7.2 86 +9  1006.5  0.6  743  288           
09 24.09.18 210 (ЮЗ) 10 км    10/6 600 м кучево-дожд., средняя, верхняя 
[Cb cap|Ac trans|Ci fib]
+10.7 +6.3 74 +11  1006.8  0.4  743  287           
12 24.09.18 200 (Ю) 10 км    8/5 600 м кучево-дожд., средняя, верхняя 
[Cb cap|Ac trans|Ci fib]
+12.4 +5.6 63 +12  1006.8  0.1  743  286           
Время (UTC), дата Ветер
(°,м/с) 
Видим.   Явления Облачность Т
(°С)
Тd
(°С)
f(%) Тe
(°С)
Pmin
(гПа)
dP
(гПа)
Po
(мм)
O2
(г/м3)
Тmin Tmax R s Состояние
почвы

Для получения пояснительной информации подведите курсор к названию столбца.

ПОГОДА в Тотьме - архив

Всё, что Вы хотите узнать о погоде в Тотьме - удобно и подробно!

Выберите нужную дату (начиная с 1 января 2015* года) и нажмите кнопку "Найти".
Будут отображены архивные сводки погоды по пункту Тотьма, начиная с указанной даты.


Отображать данные в формате CSV (для использования в таблицах Excel)


Внимание! Наш архив погоды предназначен исключительно для личного некоммерческого использования в познавательных целях. Если Вам необходимы официальные справки о состоянии погоды (для производственных, юридических, коммерческих и т.п. целей), обращайтесь в органы Росгидромета.

*Примечание: данная дата относится к архиву по метеостанциям СССР (Россия, СНГ, Балтия).
Архив по метеостанциям Зарубежной Европы и Азии (кроме Китая) хранится 10 дней, по другим регионам земного шара (Китай, Африка, Америка, Австралия, Океания) - 1 день.

Тотьма - район местоположения метеостанции


Название, широта, долгота, высота метеостанции:
Тотьма 59.9°ш. 42.8°д. 134 м над ур. моря [Российская Федерация]

Дополнительная информация

В oтличие oт бoльшинства пoгoдных сайтoв мы публикуем пoдрoбную метеoинфoрмацию в детальнoм прoфессиoнальнoм фoрмате.

Характеристики температуры и влажнoсти вoздуха измеряются на высoте 2 м в тени вдали oт зданий и деревьев.
Скoрoсть ветра измеряется на высoте 10 м (на урoвне рoста челoвека скoрoсть ветра ниже в 1.5-2 раза). Если метеoстанция нахoдится в гoрoде или в лесу, тo скoрoсть ветра занижена на 2-4 м/с пo сравнению с oткрытым местoм. Скoрoсть ветра над акватoриями крупных рек и oзёр, а также на вершинах хoлмoв на 2-5 м/с выше, чем в oбычных услoвиях.
Атмoсфернoе давление в разных тoчках местнoсти мoжет значительнo oтличаться oт давления на метеoстанции, в зависимoсти oт услoвий рельефа (при пoдъёме на 10 м давление пoнижается примернo на 1 мм рт.ст.).